Location: Seven Kings
(51.5667°N, 0.1000°E)
Time: 03:23:51
(UTC+00:00)

Okean O Rocket - Pass Details

Date: 29 October 2020
Orbit: 622 x 645 km, 98.2° (Epoch: 24 November)

Event Time Altitude Azimuth Distance (km) Brightness Sun altitude
Rises 17:23:03 0° 169° (S) 2,907 5.0 -7.7°
Reaches altitude 10° 17:25:15 10° 172° (S) 2,001 4.2 -8.0°
Maximum altitude 17:29:35 71° 257° (WSW) 665 1.9 -8.7°
Drops below altitude 10° 17:33:57 10° 342° (NNW) 2,009 4.3 -9.3°
Sets 17:36:10 0° 344° (NNW) 2,919 5.1 -9.7°
